15-04-2023, 00:00:05,    337,    1.0,    3.5,   0.00,   0.00, 1007.3,    0.6, -999.0
15-04-2023, 00:00:15,    339,    0.6,    3.5,   0.00,   0.00, 1007.3,    0.5, -999.0
15-04-2023, 00:00:25,    339,    0.5,    3.4,   0.00,   0.00, 1007.3,    0.5, -999.0
15-04-2023, 00:00:35,    346,    0.8,    3.5,   0.00,   0.00, 1007.3,    0.5, -999.0
15-04-2023, 00:00:45,    297,    1.1,    3.6,   0.00,   0.00, 1007.4,    0.4, -999.0
15-04-2023, 00:00:55,    313,    0.7,    3.4,   0.00,   0.00, 1007.3,    0.6, -999.0
15-04-2023, 00:01:05,    313,    0.7,    3.5,   0.00,   0.00, 1007.4,    0.6, -999.0
15-04-2023, 00:01:15,    358,    2.3,    3.5,   0.00,   0.00, 1007.4,    0.7, -999.0
15-04-2023, 00:01:25,    345,    1.6,    3.5,   0.00,   0.00, 1007.4,    0.4, -999.0
15-04-2023, 00:01:35,    345,    0.3,    3.5,   0.00,   0.00, 1007.4,    0.5, -999.0
15-04-2023, 00:01:45,    344,    1.1,    3.5,   0.00,   0.00, 1007.4,    0.6, -999.0
15-04-2023, 00:01:55,    343,    1.5,    3.5,   0.00,   0.00, 1007.4,    0.5, -999.0
15-04-2023, 00:02:05,    345,    1.4,    3.5,   0.00,   0.00, 1007.4,    0.5, -999.0
15-04-2023, 00:02:15,    339,    1.3,    3.5,   0.00,   0.00, 1007.4,    0.6, -999.0
15-04-2023, 00:02:25,    335,    1.1,    3.4,   0.00,   0.00, 1007.4,    0.5, -999.0
15-04-2023, 00:02:35,    343,    1.9,    3.5,   0.00,   0.00, 1007.4,    0.7, -999.0
15-04-2023, 00:02:45,    340,    1.1,    3.5,   0.00,   0.00, 1007.4,    0.5, -999.0
15-04-2023, 00:02:55,    342,    0.7,    3.4,   0.00,   0.00, 1007.4,    0.6, -999.0
15-04-2023, 00:03:05,    335,    1.4,    3.5,   0.00,   0.00, 1007.4,    0.5, -999.0
15-04-2023, 00:03:15,    337,    1.1,    3.5,   0.00,   0.00, 1007.4,    0.5, -999.0
15-04-2023, 00:03:25,    334,    1.2,    3.5,   0.00,   0.00, 1007.4,    0.4, -999.0
15-04-2023, 00:03:35,    335,    0.5,    3.4,   0.00,   0.00, 1007.3,    0.4, -999.0
15-04-2023, 00:03:45,    335,    0.5,    3.4,   0.00,   0.00, 1007.4,    0.5, -999.0
15-04-2023, 00:03:55,    313,    1.8,    3.5,   0.00,   0.00, 1007.4,    0.4, -999.0
15-04-2023, 00:04:05,    325,    2.1,    3.4,   0.00,   0.00, 1007.4,    0.5, -999.0
15-04-2023, 00:04:15,    345,    1.8,    3.4,   0.00,   0.00, 1007.4,    0.6, -999.0
15-04-2023, 00:04:25,    334,    0.7,    3.4,   0.00,   0.00, 1007.4,    0.6, -999.0
15-04-2023, 00:04:35,    334,    0.9,    3.4,   0.00,   0.00, 1007.4,    0.4, -999.0
15-04-2023, 00:04:45,    332,    1.8,    3.5,   0.00,   0.00, 1007.4,    0.6, -999.0
15-04-2023, 00:04:55,    334,    1.6,    3.5,   0.00,   0.00, 1007.4,    0.6, -999.0
15-04-2023, 00:05:05,    334,    0.0,    3.3,   0.00,   0.00, 1007.3,    0.4, -999.0
15-04-2023, 00:05:15,    334,    0.1,    3.4,   0.00,   0.00, 1007.3,    0.2, -999.0
15-04-2023, 00:05:25,    334,    0.5,    3.4,   0.00,   0.00, 1007.4,    0.4, -999.0
15-04-2023, 00:05:35,    334,    0.4,    3.4,   0.00,   0.00, 1007.5,    0.6, -999.0
15-04-2023, 00:05:45,    337,    0.4,    3.4,   0.00,   0.00, 1007.4,    0.6, -999.0
15-04-2023, 00:05:54,    343,    1.0,    3.3,   0.00,   0.00, 1007.4,    0.4, -999.0
15-04-2023, 00:06:05,    338,    0.9,    3.3,   0.00,   0.00, 1007.4,    0.4, -999.0
15-04-2023, 00:06:15,    338,    0.0,    3.3,   0.00,   0.00, 1007.3,    0.5, -999.0
15-04-2023, 00:06:25,    338,    0.0,    3.4,   0.00,   0.00, 1007.3,    0.3, -999.0
15-04-2023, 00:06:34,    338,    0.2,    3.4,   0.00,   0.00, 1007.4,    0.4, -999.0
15-04-2023, 00:06:45,    338,    0.0,    3.4,   0.00,   0.00, 1007.3,    0.4, -999.0
15-04-2023, 00:06:55,    347,    0.2,    3.3,   0.00,   0.00, 1007.4,    0.3, -999.0
15-04-2023, 00:07:04,    346,    0.1,    3.4,   0.00,   0.00, 1007.3,    0.4, -999.0
15-04-2023, 00:07:15,    338,    1.6,    3.4,   0.00,   0.00, 1007.4,    0.6, -999.0
15-04-2023, 00:07:25,    345,    2.5,    3.4,   0.00,   0.00, 1007.5,    0.4, -999.0
15-04-2023, 00:07:34,    338,    1.8,    3.4,   0.00,   0.00, 1007.4,    0.5, -999.0
15-04-2023, 00:07:44,    338,    2.1,    3.4,   0.00,   0.00, 1007.5,    0.6, -999.0
15-04-2023, 00:07:55,    338,    0.5,    3.4,   0.00,   0.00, 1007.5,    0.5, -999.0
15-04-2023, 00:08:05,    338,    0.2,    3.4,   0.00,   0.00, 1007.4,    0.6, -999.0
15-04-2023, 00:08:14,    337,    0.3,    3.3,   0.00,   0.00, 1007.5,    0.4, -999.0
15-04-2023, 00:08:24,    338,    0.1,    3.3,   0.00,   0.00, 1007.4,    0.5, -999.0
15-04-2023, 00:08:35,    338,    0.2,    3.3,   0.00,   0.00, 1007.4,    0.4, -999.0
15-04-2023, 00:08:44,    338,    0.4,    3.4,   0.00,   0.00, 1007.4,    0.5, -999.0
15-04-2023, 00:08:54,    337,    0.2,    3.4,   0.00,   0.00, 1007.4,    0.6, -999.0
15-04-2023, 00:09:04,    337,    0.0,    3.3,   0.00,   0.00, 1007.3,    0.5, -999.0
15-04-2023, 00:09:14,    338,    0.2,    3.3,   0.00,   0.00, 1007.4,    0.5, -999.0
15-04-2023, 00:09:24,    325,    1.1,    3.4,   0.00,   0.00, 1007.4,    0.7, -999.0
15-04-2023, 00:09:34,    339,    1.4,    3.3,   0.00,   0.00, 1007.5,    0.5, -999.0
15-04-2023, 00:09:44,    339,    0.7,    3.3,   0.00,   0.00, 1007.4,    0.5, -999.0
15-04-2023, 00:09:54,    346,    0.7,    3.3,   0.00,   0.00, 1007.4,    0.5, -999.0
15-04-2023, 00:10:04,    328,    1.1,    3.4,   0.00,   0.00, 1007.5,    0.7, -999.0
15-04-2023, 00:10:14,    323,    0.9,    3.3,   0.00,   0.00, 1007.5,    0.4, -999.0
15-04-2023, 00:10:24,    326,    0.8,    3.3,   0.00,   0.00, 1007.4,    0.5, -999.0
15-04-2023, 00:10:34,    329,    0.9,    3.3,   0.00,   0.00, 1007.5,    0.5, -999.0
15-04-2023, 00:10:44,    303,    1.3,    3.4,   0.00,   0.00, 1007.5,    0.7, -999.0
15-04-2023, 00:10:54,    303,    0.4,    3.3,   0.00,   0.00, 1007.4,    0.1, -999.0
15-04-2023, 00:11:04,    303,    0.5,    3.3,   0.00,   0.00, 1007.4,    0.5, -999.0
15-04-2023, 00:11:14,    303,    0.1,    3.3,   0.00,   0.00, 1007.4,    0.6, -999.0
15-04-2023, 00:11:24,    304,    0.8,    3.3,   0.00,   0.00, 1007.5,    0.5, -999.0
15-04-2023, 00:11:34,    349,    2.4,    3.3,   0.00,   0.00, 1007.5,    0.5, -999.0
15-04-2023, 00:11:44,    332,    3.3,    3.3,   0.00,   0.00, 1007.4,    0.7, -999.0
15-04-2023, 00:11:54,    318,    2.8,    3.3,   0.00,   0.00, 1007.5,    0.4, -999.0
15-04-2023, 00:12:04,    323,    1.7,    3.3,   0.00,   0.00, 1007.5,    0.4, -999.0
15-04-2023, 00:12:14,    320,    1.2,    3.2,   0.00,   0.00, 1007.5,    0.9, -999.0
15-04-2023, 00:12:24,    334,    0.3,    3.3,   0.00,   0.00, 1007.4,    0.4, -999.0
15-04-2023, 00:12:34,    329,    1.0,    3.3,   0.00,   0.00, 1007.5,    0.4, -999.0
15-04-2023, 00:12:44,    313,    1.8,    3.3,   0.00,   0.00, 1007.5,    0.6, -999.0
15-04-2023, 00:12:54,    310,    1.2,    3.4,   0.00,   0.00, 1007.5,    0.6, -999.0
15-04-2023, 00:13:04,    310,    0.2,    3.3,   0.00,   0.00, 1007.5,    0.8, -999.0
15-04-2023, 00:13:14,    351,    1.4,    3.4,   0.00,   0.00, 1007.5,    0.6, -999.0
15-04-2023, 00:13:24,    349,    0.8,    3.3,   0.00,   0.00, 1007.5,    0.7, -999.0
15-04-2023, 00:13:34,    325,    0.8,    3.3,   0.00,   0.00, 1007.5,    0.3, -999.0
15-04-2023, 00:13:44,    300,    0.8,    3.3,   0.00,   0.00, 1007.5,    0.5, -999.0
15-04-2023, 00:13:54,    301,    0.6,    3.3,   0.00,   0.00, 1007.5,    0.5, -999.0
15-04-2023, 00:14:04,    337,    1.1,    3.3,   0.00,   0.00, 1007.5,    0.4, -999.0
15-04-2023, 00:14:14,    336,    0.1,    3.2,   0.00,   0.00, 1007.5,    0.4, -999.0
15-04-2023, 00:14:24,    330,    2.4,    3.4,   0.00,   0.00, 1007.5,    0.4, -999.0
15-04-2023, 00:14:34,    327,    2.3,    3.2,   0.00,   0.00, 1007.5,    0.5, -999.0
15-04-2023, 00:14:44,    327,    1.1,    3.3,   0.00,   0.00, 1007.5,    0.4, -999.0
15-04-2023, 00:14:54,    323,    1.8,    3.3,   0.00,   0.00, 1007.5,    0.6, -999.0
15-04-2023, 00:15:04,    311,    2.6,    3.3,   0.00,   0.00, 1007.6,    0.5, -999.0
15-04-2023, 00:15:14,    310,    3.1,    3.3,   0.00,   0.00, 1007.5,    0.5, -999.0
15-04-2023, 00:15:24,    311,    1.5,    3.3,   0.00,   0.00, 1007.5,    0.6, -999.0
15-04-2023, 00:15:34,    311,    0.3,    3.3,   0.00,   0.00, 1007.5,    0.5, -999.0
15-04-2023, 00:15:44,    311,    0.2,    3.3,   0.00,   0.00, 1007.4,    0.3, -999.0
15-04-2023, 00:15:54,    311,    0.7,    3.3,   0.00,   0.00, 1007.5,    0.8, -999.0
15-04-2023, 00:16:03,    306,    1.1,    3.2,   0.00,   0.00, 1007.5,    0.5, -999.0
15-04-2023, 00:16:14,    309,    0.6,    3.3,   0.00,   0.00, 1007.5,    0.2, -999.0
15-04-2023, 00:16:24,    309,    0.0,    3.1,   0.00,   0.00, 1007.4,    0.4, -999.0
15-04-2023, 00:16:33,    310,    0.4,    3.2,   0.00,   0.00, 1007.5,    0.6, -999.0
15-04-2023, 00:16:43,    309,    0.5,    3.3,   0.00,   0.00, 1007.5,    0.5, -999.0
15-04-2023, 00:16:54,    313,    0.7,    3.3,   0.00,   0.00, 1007.5,    0.4, -999.0
15-04-2023, 00:17:04,    358,    1.8,    3.3,   0.00,   0.00, 1007.5,    0.5, -999.0
15-04-2023, 00:17:13,    343,    1.0,    3.2,   0.00,   0.00, 1007.5,    0.7, -999.0
15-04-2023, 00:17:24,    342,    0.6,    3.2,   0.00,   0.00, 1007.5,    0.3, -999.0
15-04-2023, 00:17:34,    342,    0.3,    3.2,   0.00,   0.00, 1007.5,    0.5, -999.0
15-04-2023, 00:17:43,    345,    1.6,    3.2,   0.00,   0.00, 1007.5,    0.7, -999.0
15-04-2023, 00:17:53,    344,    0.5,    3.2,   0.00,   0.00, 1007.5,    0.4, -999.0
15-04-2023, 00:18:04,    340,    0.3,    3.2,   0.00,   0.00, 1007.5,    0.5, -999.0
15-04-2023, 00:18:14,    306,    1.8,    3.2,   0.00,   0.00, 1007.5,    0.4, -999.0
15-04-2023, 00:18:23,    308,    2.2,    3.2,   0.00,   0.00, 1007.6,    0.7, -999.0
15-04-2023, 00:18:33,    312,    2.1,    3.3,   0.00,   0.00, 1007.5,    0.4, -999.0
15-04-2023, 00:18:44,    312,    2.7,    3.3,   0.00,   0.00, 1007.6,    0.4, -999.0
15-04-2023, 00:18:53,    310,    2.2,    3.3,   0.00,   0.00, 1007.6,    0.6, -999.0
15-04-2023, 00:19:03,    311,    0.8,    3.3,   0.00,   0.00, 1007.6,    0.4, -999.0
15-04-2023, 00:19:13,    325,    1.9,    3.2,   0.00,   0.00, 1007.5,    0.5, -999.0
15-04-2023, 00:19:23,    337,    2.0,    3.3,   0.00,   0.00, 1007.6,    0.5, -999.0
15-04-2023, 00:19:33,    316,    2.0,    3.2,   0.00,   0.00, 1007.6,    0.4, -999.0
15-04-2023, 00:19:43,    312,    1.4,    3.2,   0.00,   0.00, 1007.6,    0.3, -999.0
15-04-2023, 00:19:53,    312,    0.0,    3.2,   0.00,   0.00, 1007.5,    0.4, -999.0
15-04-2023, 00:20:03,    285,    0.3,    3.2,   0.00,   0.00, 1007.5,    0.5, -999.0
15-04-2023, 00:20:13,    317,    0.9,    3.3,   0.00,   0.00, 1007.6,    0.6, -999.0
15-04-2023, 00:20:23,    320,    0.8,    3.3,   0.00,   0.00, 1007.6,    0.2, -999.0
15-04-2023, 00:20:33,    318,    0.4,    3.2,   0.00,   0.00, 1007.6,    0.3, -999.0
15-04-2023, 00:20:43,    320,    0.6,    3.3,   0.00,   0.00, 1007.6,    0.5, -999.0
15-04-2023, 00:20:53,    320,    0.1,    3.3,   0.00,   0.00, 1007.6,    0.4, -999.0
15-04-2023, 00:21:03,    320,    0.3,    3.4,   0.00,   0.00, 1007.6,    0.4, -999.0
15-04-2023, 00:21:13,    320,    0.6,    3.3,   0.00,   0.00, 1007.6,    0.6, -999.0
15-04-2023, 00:21:23,    320,    0.0,    3.2,   0.00,   0.00, 1007.5,    0.6, -999.0
15-04-2023, 00:21:33,    320,    0.0,    3.1,   0.00,   0.00, 1007.5,    0.5, -999.0
15-04-2023, 00:21:43,    321,    0.5,    3.2,   0.00,   0.00, 1007.6,    0.6, -999.0
15-04-2023, 00:21:53,    325,    0.4,    3.1,   0.00,   0.00, 1007.5,    0.5, -999.0
15-04-2023, 00:22:03,    322,    0.5,    3.2,   0.00,   0.00, 1007.6,    0.6, -999.0
15-04-2023, 00:22:13,    321,    0.2,    3.2,   0.00,   0.00, 1007.6,    0.5, -999.0
15-04-2023, 00:22:23,    323,    0.3,    3.2,   0.00,   0.00, 1007.5,    0.6, -999.0
15-04-2023, 00:22:33,    323,    0.7,    3.3,   0.00,   0.00, 1007.6,    0.2, -999.0
15-04-2023, 00:22:43,    318,    0.2,    3.1,   0.00,   0.00, 1007.5,    0.6, -999.0
15-04-2023, 00:22:53,    318,    0.3,    3.2,   0.00,   0.00, 1007.6,    0.6, -999.0
15-04-2023, 00:23:03,    318,    0.4,    3.3,   0.00,   0.00, 1007.6,    0.4, -999.0
15-04-2023, 00:23:13,    319,    0.6,    3.2,   0.00,   0.00, 1007.6,    0.5, -999.0
15-04-2023, 00:23:23,    326,    1.2,    3.2,   0.00,   0.00, 1007.6,    0.4, -999.0
15-04-2023, 00:23:33,    331,    0.9,    3.2,   0.00,   0.00, 1007.6,    0.5, -999.0
15-04-2023, 00:23:43,    331,    0.7,    3.2,   0.00,   0.00, 1007.6,    0.5, -999.0
15-04-2023, 00:23:53,    331,    1.0,    3.3,   0.00,   0.00, 1007.6,    0.7, -999.0
15-04-2023, 00:24:03,    330,    0.6,    3.3,   0.00,   0.00, 1007.6,    0.3, -999.0
15-04-2023, 00:24:13,    331,    0.1,    3.2,   0.00,   0.00, 1007.5,    0.4, -999.0
15-04-2023, 00:24:23,    330,    0.3,    3.2,   0.00,   0.00, 1007.6,    0.4, -999.0
15-04-2023, 00:24:33,    330,    1.4,    3.3,   0.00,   0.00, 1007.6,    0.5, -999.0
15-04-2023, 00:24:43,    328,    0.6,    3.2,   0.00,   0.00, 1007.6,    0.3, -999.0
15-04-2023, 00:24:53,    328,    0.1,    3.2,   0.00,   0.00, 1007.5,    0.6, -999.0
15-04-2023, 00:25:03,    328,    0.7,    3.3,   0.00,   0.00, 1007.6,    0.5, -999.0
15-04-2023, 00:25:13,    327,    0.2,    3.2,   0.00,   0.00, 1007.5,    0.5, -999.0
15-04-2023, 00:25:23,    328,    0.5,    3.2,   0.00,   0.00, 1007.6,    0.5, -999.0
15-04-2023, 00:25:33,    328,    0.4,    3.3,   0.00,   0.00, 1007.6,    0.5, -999.0
15-04-2023, 00:25:43,    335,    0.7,    3.3,   0.00,   0.00, 1007.6,    0.6, -999.0
15-04-2023, 00:25:53,    335,    0.3,    3.3,   0.00,   0.00, 1007.6,    0.6, -999.0
15-04-2023, 00:26:03,    336,    1.2,    3.2,   0.00,   0.00, 1007.6,    0.7, -999.0
15-04-2023, 00:26:12,    334,    0.7,    3.1,   0.00,   0.00, 1007.6,    0.5, -999.0
15-04-2023, 00:26:23,    313,    1.7,    3.2,   0.00,   0.00, 1007.6,    0.6, -999.0
15-04-2023, 00:26:33,    316,    1.0,    3.3,   0.00,   0.00, 1007.6,    0.4, -999.0
15-04-2023, 00:26:43,    316,    0.7,    3.3,   0.00,   0.00, 1007.6,    0.5, -999.0
15-04-2023, 00:26:52,    317,    0.6,    3.2,   0.00,   0.00, 1007.6,    0.5, -999.0
15-04-2023, 00:27:03,    317,    0.7,    3.3,   0.00,   0.00, 1007.6,    0.7, -999.0
15-04-2023, 00:27:13,    317,    1.0,    3.3,   0.00,   0.00, 1007.6,    0.4, -999.0
15-04-2023, 00:27:22,    323,    0.4,    3.3,   0.00,   0.00, 1007.6,    0.6, -999.0
15-04-2023, 00:27:33,    323,    0.3,    3.2,   0.00,   0.00, 1007.6,    0.3, -999.0
15-04-2023, 00:27:43,    336,    1.0,    3.2,   0.00,   0.00, 1007.6,    0.3, -999.0
15-04-2023, 00:27:52,    336,    0.9,    3.3,   0.00,   0.00, 1007.6,    0.5, -999.0
15-04-2023, 00:28:02,    335,    1.0,    3.2,   0.00,   0.00, 1007.6,    0.5, -999.0
15-04-2023, 00:28:13,    334,    0.3,    3.2,   0.00,   0.00, 1007.6,    0.7, -999.0
15-04-2023, 00:28:23,    334,    0.0,    3.1,   0.00,   0.00, 1007.5,    0.6, -999.0
15-04-2023, 00:28:32,    331,    0.1,    3.1,   0.00,   0.00, 1007.5,    0.6, -999.0
15-04-2023, 00:28:42,    337,    0.9,    3.2,   0.00,   0.00, 1007.6,    0.5, -999.0
15-04-2023, 00:28:53,    338,    1.1,    3.1,   0.00,   0.00, 1007.6,    0.7, -999.0
15-04-2023, 00:29:02,    335,    0.6,    3.2,   0.00,   0.00, 1007.6,    0.5, -999.0
15-04-2023, 00:29:12,    337,    0.3,    3.2,   0.00,   0.00, 1007.6,    0.5, -999.0
15-04-2023, 00:29:22,    335,    0.1,    3.2,   0.00,   0.00, 1007.6,    0.5, -999.0
15-04-2023, 00:29:33,    335,    0.0,    3.2,   0.00,   0.00, 1007.5,    0.4, -999.0
15-04-2023, 00:29:42,    335,    0.1,    3.3,   0.00,   0.00, 1007.5,    0.4, -999.0
15-04-2023, 00:29:52,    335,    0.8,    3.3,   0.00,   0.00, 1007.6,    0.4, -999.0
15-04-2023, 00:30:02,    334,    2.3,    3.2,   0.00,   0.00, 1007.6,    0.5, -999.0
15-04-2023, 00:30:12,    334,    2.3,    3.2,   0.00,   0.00, 1007.6,    0.6, -999.0
15-04-2023, 00:30:22,    334,    1.2,    3.2,   0.00,   0.00, 1007.6,    0.5, -999.0
15-04-2023, 00:30:32,    337,    1.5,    3.2,   0.00,   0.00, 1007.6,    0.3, -999.0
15-04-2023, 00:30:42,    337,    0.8,    3.2,   0.00,   0.00, 1007.6,    0.5, -999.0
15-04-2023, 00:30:52,    337,    0.0,    3.0,   0.00,   0.00, 1007.5,    0.5, -999.0
15-04-2023, 00:31:02,    338,    0.1,    3.2,   0.00,   0.00, 1007.6,    0.6, -999.0
15-04-2023, 00:31:12,    337,    0.5,    3.2,   0.00,   0.00, 1007.6,    0.5, -999.0
15-04-2023, 00:31:22,    337,    0.6,    3.2,   0.00,   0.00, 1007.6,    0.6, -999.0
15-04-2023, 00:31:32,    337,    0.1,    3.2,   0.00,   0.00, 1007.5,    0.7, -999.0
15-04-2023, 00:31:42,    337,    0.1,    3.2,   0.00,   0.00, 1007.5,    0.5, -999.0
15-04-2023, 00:31:52,    337,    0.6,    3.2,   0.00,   0.00, 1007.6,    0.8, -999.0
15-04-2023, 00:32:02,    337,    1.1,    3.2,   0.00,   0.00, 1007.6,    0.5, -999.0
15-04-2023, 00:32:12,    337,    0.6,    3.3,   0.00,   0.00, 1007.6,    0.4, -999.0
15-04-2023, 00:32:22,    323,    1.2,    3.3,   0.00,   0.00, 1007.6,    0.4, -999.0
15-04-2023, 00:32:32,    332,    0.6,    3.2,   0.00,   0.00, 1007.6,    0.6, -999.0
15-04-2023, 00:32:42,    332,    0.0,    3.2,   0.00,   0.00, 1007.5,    0.4, -999.0
15-04-2023, 00:32:52,    289,    0.8,    3.3,   0.00,   0.00, 1007.6,    0.7, -999.0
15-04-2023, 00:33:02,    340,    1.0,    3.2,   0.00,   0.00, 1007.6,    0.5, -999.0
15-04-2023, 00:33:12,    324,    2.4,    3.2,   0.00,   0.00, 1007.7,    0.6, -999.0
15-04-2023, 00:33:22,    317,    1.8,    3.2,   0.00,   0.00, 1007.6,    0.6, -999.0
15-04-2023, 00:33:32,    313,    1.3,    3.2,   0.00,   0.00, 1007.6,    0.4, -999.0
15-04-2023, 00:33:42,    321,    0.9,    3.2,   0.00,   0.00, 1007.7,    0.6, -999.0
15-04-2023, 00:33:52,    321,    0.5,    3.2,   0.00,   0.00, 1007.6,    0.6, -999.0
15-04-2023, 00:34:02,    321,    0.0,    3.1,   0.00,   0.00, 1007.5,    0.4, -999.0
15-04-2023, 00:34:12,    321,    0.0,    3.2,   0.00,   0.00, 1007.5,    0.5, -999.0
15-04-2023, 00:34:22,    321,    0.1,    3.3,   0.00,   0.00, 1007.6,    0.6, -999.0
15-04-2023, 00:34:32,    321,    0.3,    3.2,   0.00,   0.00, 1007.7,    0.6, -999.0
15-04-2023, 00:34:42,    321,    0.3,    3.2,   0.00,   0.00, 1007.6,    0.3, -999.0
15-04-2023, 00:34:52,    326,    0.4,    3.1,   0.00,   0.00, 1007.6,    0.4, -999.0
15-04-2023, 00:35:02,    326,    1.1,    3.2,   0.00,   0.00, 1007.7,    0.5, -999.0
15-04-2023, 00:35:12,    326,    0.9,    3.2,   0.00,   0.00, 1007.7,    0.5, -999.0
15-04-2023, 00:35:22,    325,    0.4,    3.2,   0.00,   0.00, 1007.6,    0.5, -999.0
15-04-2023, 00:35:32,    325,    0.5,    3.2,   0.00,   0.00, 1007.6,    0.5, -999.0
15-04-2023, 00:35:42,    325,    0.3,    3.2,   0.00,   0.00, 1007.6,    0.6, -999.0
15-04-2023, 00:35:52,    325,    0.4,    3.2,   0.00,   0.00, 1007.6,    0.5, -999.0
15-04-2023, 00:36:02,    325,    0.5,    3.2,   0.00,   0.00, 1007.6,    0.4, -999.0
15-04-2023, 00:36:12,    325,    0.1,    3.1,   0.00,   0.00, 1007.5,    0.3, -999.0
15-04-2023, 00:36:21,    325,    0.0,    3.1,   0.00,   0.00, 1007.5,    0.4, -999.0
15-04-2023, 00:36:32,    325,    0.1,    3.3,   0.00,   0.00, 1007.6,    0.5, -999.0
15-04-2023, 00:36:42,    325,    0.1,    3.3,   0.00,   0.00, 1007.6,    0.4, -999.0
15-04-2023, 00:36:52,    325,    0.0,    3.2,   0.00,   0.00, 1007.6,    0.4, -999.0
15-04-2023, 00:37:01,    325,    0.0,    3.3,   0.00,   0.00, 1007.5,    0.3, -999.0
15-04-2023, 00:37:12,    325,    0.1,    3.2,   0.00,   0.00, 1007.6,    0.4, -999.0
15-04-2023, 00:37:22,    325,    0.1,    3.2,   0.00,   0.00, 1007.6,    0.5, -999.0
15-04-2023, 00:37:31,    329,    0.5,    3.3,   0.00,   0.00, 1007.7,    0.7, -999.0
15-04-2023, 00:37:41,    329,    0.6,    3.2,   0.00,   0.00, 1007.7,    0.4, -999.0
15-04-2023, 00:37:52,    328,    0.5,    3.2,   0.00,   0.00, 1007.7,    0.5, -999.0
15-04-2023, 00:38:02,    327,    0.6,    3.3,   0.00,   0.00, 1007.7,    0.6, -999.0
15-04-2023, 00:38:11,    339,    0.8,    3.2,   0.00,   0.00, 1007.7,    0.5, -999.0
15-04-2023, 00:38:21,    338,    0.3,    3.2,   0.00,   0.00, 1007.7,    0.5, -999.0
15-04-2023, 00:38:32,    338,    0.0,    3.2,   0.00,   0.00, 1007.6,    0.6, -999.0
15-04-2023, 00:38:41,    338,    0.3,    3.2,   0.00,   0.00, 1007.6,    0.4, -999.0
15-04-2023, 00:38:51,    338,    0.0,    3.2,   0.00,   0.00, 1007.6,    0.4, -999.0
15-04-2023, 00:39:02,    338,    0.0,    3.2,   0.00,   0.00, 1007.6,    0.5, -999.0
15-04-2023, 00:39:11,    333,    0.2,    3.2,   0.00,   0.00, 1007.6,    0.4, -999.0
15-04-2023, 00:39:21,    333,    0.0,    3.2,   0.00,   0.00, 1007.6,    0.6, -999.0
15-04-2023, 00:39:31,    333,    0.2,    3.2,   0.00,   0.00, 1007.7,    0.3, -999.0
15-04-2023, 00:39:42,    333,    0.0,    3.1,   0.00,   0.00, 1007.6,    0.5, -999.0
15-04-2023, 00:39:51,    334,    0.4,    3.2,   0.00,   0.00, 1007.7,    0.6, -999.0
15-04-2023, 00:40:01,    333,    0.0,    3.2,   0.00,   0.00, 1007.6,    0.3, -999.0
15-04-2023, 00:40:11,    333,    0.1,    3.2,   0.00,   0.00, 1007.6,    0.7, -999.0
15-04-2023, 00:40:21,    333,    0.0,    3.2,   0.00,   0.00, 1007.7,    0.7, -999.0
15-04-2023, 00:40:31,    333,    0.4,    3.2,   0.00,   0.00, 1007.7,    0.3, -999.0
15-04-2023, 00:40:41,    332,    0.2,    3.3,   0.00,   0.00, 1007.7,    0.4, -999.0
15-04-2023, 00:40:51,    333,    0.1,    3.2,   0.00,   0.00, 1007.7,    0.6, -999.0
15-04-2023, 00:41:01,    333,    0.3,    3.2,   0.00,   0.00, 1007.7,    0.3, -999.0
15-04-2023, 00:41:11,    333,    0.5,    3.2,   0.00,   0.00, 1007.8,    0.6, -999.0
15-04-2023, 00:41:21,    333,    0.3,    3.2,   0.00,   0.00, 1007.8,    0.7, -999.0
15-04-2023, 00:41:31,    333,    0.4,    3.2,   0.00,   0.00, 1007.7,    0.5, -999.0
15-04-2023, 00:41:41,    333,    0.0,    3.1,   0.00,   0.00, 1007.6,    0.6, -999.0
15-04-2023, 00:41:51,    333,    0.0,    3.1,   0.00,   0.00, 1007.7,    0.4, -999.0
15-04-2023, 00:42:01,    333,    0.1,    3.1,   0.00,   0.00, 1007.7,    0.3, -999.0
15-04-2023, 00:42:11,    333,    0.0,    3.1,   0.00,   0.00, 1007.6,    0.6, -999.0
15-04-2023, 00:42:21,    333,    0.0,    3.1,   0.00,   0.00, 1007.6,    0.4, -999.0
15-04-2023, 00:42:31,    333,    0.1,    2.9,   0.00,   0.00, 1007.7,    0.5, -999.0
15-04-2023, 00:42:41,    333,    0.2,    3.3,   0.00,   0.00, 1007.7,    0.7, -999.0
15-04-2023, 00:42:51,    332,    0.0,    3.1,   0.00,   0.00, 1007.6,    0.7, -999.0
15-04-2023, 00:43:01,    333,    0.0,    3.1,   0.00,   0.00, 1007.6,    0.4, -999.0
15-04-2023, 00:43:11,    332,    0.0,    3.2,   0.00,   0.00, 1007.6,    0.2, -999.0
15-04-2023, 00:43:21,    332,    0.0,    3.2,   0.00,   0.00, 1007.6,    0.5, -999.0
15-04-2023, 00:43:31,    333,    0.0,    3.2,   0.00,   0.00, 1007.6,    0.6, -999.0
15-04-2023, 00:43:41,    333,    0.5,    3.2,   0.00,   0.00, 1007.8,    0.5, -999.0
15-04-2023, 00:43:51,    333,    0.5,    3.2,   0.00,   0.00, 1007.8,    0.6, -999.0
15-04-2023, 00:44:01,    333,    0.9,    3.2,   0.00,   0.00, 1007.8,    0.3, -999.0
15-04-2023, 00:44:11,    334,    0.4,    3.2,   0.00,   0.00, 1007.8,    0.6, -999.0
15-04-2023, 00:44:21,    332,    0.0,    3.1,   0.00,   0.00, 1007.7,    0.5, -999.0
15-04-2023, 00:44:31,    332,    0.0,    3.1,   0.00,   0.00, 1007.7,    0.3, -999.0
15-04-2023, 00:44:41,    332,    0.0,    3.1,   0.00,   0.00, 1007.7,    0.6, -999.0
15-04-2023, 00:44:51,    332,    0.1,    3.1,   0.00,   0.00, 1007.7,    0.6, -999.0
15-04-2023, 00:45:01,    332,    0.0,    3.2,   0.00,   0.00, 1007.7,    0.4, -999.0
15-04-2023, 00:45:11,    333,    0.0,    3.2,   0.00,   0.00, 1007.7,    0.5, -999.0
15-04-2023, 00:45:21,    333,    0.1,    3.2,   0.00,   0.00, 1007.7,    0.4, -999.0
15-04-2023, 00:45:31,    333,    0.1,    3.3,   0.00,   0.00, 1007.7,    0.6, -999.0
15-04-2023, 00:45:41,    332,    0.1,    3.2,   0.00,   0.00, 1007.7,    0.3, -999.0
15-04-2023, 00:45:51,    332,    0.0,    3.1,   0.00,   0.00, 1007.7,    0.4, -999.0
15-04-2023, 00:46:01,    332,    0.0,    3.1,   0.00,   0.00, 1007.7,    0.5, -999.0
15-04-2023, 00:46:11,    332,    0.0,    3.1,   0.00,   0.00, 1007.6,    0.5, -999.0
15-04-2023, 00:46:21,    333,    0.0,    3.1,   0.00,   0.00, 1007.7,    0.5, -999.0
15-04-2023, 00:46:30,    333,    0.0,    3.2,   0.00,   0.00, 1007.7,    0.5, -999.0
15-04-2023, 00:46:41,    338,    0.3,    3.2,   0.00,   0.00, 1007.7,    0.3, -999.0
15-04-2023, 00:46:51,    332,    0.7,    3.3,   0.00,   0.00, 1007.8,    0.3, -999.0